Location: Aulus
(42.7909°N, 1.3399°E)
Time: 06:43:25
(UTC+00:00)

Cosmos 1125 Rocket - Pass Details

Date: 19 May 2025
Orbit: 753 x 776 km, 74.0° (Epoch: 18 June)

Event Time Altitude Azimuth Distance (km) Brightness Sun altitude
Rises 21:03:40 0° 340° (NNW) 3,266 8.1 -16.4°
Reaches altitude 10° 21:06:04 10° 342° (NNW) 2,334 7.1 -16.6°
Maximum altitude 21:11:23 80° 70° (ENE) 792 3.5 -17.3°
Enters shadow 21:14:02 30° 154° (SSE) 1,352 4.2 -17.6°
